Flag for U.S.A. Weather past 2 weeks in Sitka, Alaska, U.S.A.

Now
41 °F

Clear.


Feels Like: 38 °F
Forecast: 44 / 55 °F
Wind: 5 mph from Southeast

Location: Sitka Airport

Current Time: May 5, 2015 at 4:18:03 AM

Latest Report: May 5, 2015 at 3:53 AM


Visibility: 10 mi

Pressure: 29.97 "Hg

Humidity: 67%

Dew point: 31 °F

Location of SitkaLocation

Historic Weather in Sitka — Graph

°F

Sitka temperature yesterday

Maximum temperature yesterday: 61 °F (at 1:53 PM)
Minimum temperature yesterday: 40 °F (at 3:53 AM)
Average temperature yesterday: 52 °F

Past Weeks' High & Low Weather Summary

 TemperatureHumidityPressure
High61 °F (May 4, 1:53 PM)97% (Apr 20, 8:53 AM)30.19 "Hg (Apr 20, 8:53 AM)
Low33 °F (Apr 22, 3:53 AM)23% (May 4, 4:53 PM)29.04 "Hg (Apr 28, 7:53 AM)
Average45 °F73%29.83 "Hg
* Reported Apr 20 2:53 AM — May 5 2:53 AM, Sitka, Weather by CustomWeather, © 2015

Note: Actual official high and low records may vary slightly from our data, if they occured in-between our weather recording intervals... More about our weather records

Advertising

Sitka weather history for previous 24 hours

 ConditionsComfort  
Time TempWeatherWind HumidityBarometerVisibility
2:53 AM
Tue, May 5
42 °FClear.3 mph62%29.97 "Hg10 mi
1:53 AM43 °FClear.No wind68%29.96 "Hg10 mi
12:53 AM44 °FClear.5 mph65%29.95 "Hg10 mi
11:53 PM
Mon, May 4
46 °FClear.3 mph58%29.93 "Hg10 mi
10:53 PM48 °FClear.6 mph48%29.92 "Hg10 mi
9:53 PM51 °FClear.10 mph52%29.90 "Hg10 mi
8:53 PM54 °FSunny.9 mph41%29.89 "Hg10 mi
7:53 PM59 °FSunny.8 mph24%29.87 "Hg10 mi
6:53 PM59 °FSunny.6 mph24%29.86 "Hg10 mi
5:53 PM61 °FSunny.8 mph24%29.84 "Hg10 mi
4:53 PM61 °FSunny.6 mph23%29.84 "Hg10 mi
3:53 PM60 °FPassing clouds.5 mph25%29.84 "Hg10 mi
2:53 PM60 °FSunny.3 mph24%29.83 "Hg10 mi
1:53 PM61 °FSunny.5 mph29%29.84 "Hg10 mi
12:53 PMN/ASunny.N/AN/A29.84 "HgN/A
11:53 AM58 °FSunny.6 mph30%29.85 "Hg10 mi
10:53 AM58 °FSunny.No wind33%29.85 "Hg10 mi
9:53 AM56 °FSunny.No wind37%29.85 "Hg10 mi
8:53 AM53 °FSunny.3 mph48%29.86 "Hg10 mi
7:53 AM51 °FPassing clouds.No wind48%29.86 "Hg10 mi
6:53 AM46 °FPassing clouds.6 mph63%29.86 "Hg10 mi
5:53 AM41 °FPassing clouds.3 mph76%29.86 "Hg10 mi
4:53 AM41 °FClear.No wind80%29.87 "Hg10 mi
Weather by CustomWeather, © 2015

See weather overviewHow to use our weather pages